Station DTLM4 - 9075099 - De Tour Village, MI Image indicating link to RSS feed of recent meteorological observations for station DTLM4


Conditions at DTLM4 as of
(5:30 pm EDT)
2130 GMT on 04/17/2024:
     

Click on the graph icon in the table below to see a time series plot of the last five days of that observation.

5-day plot - Wind Direction Wind Direction (WDIR):ENE ( 70 deg true )
5-day plot - Wind Speed Wind Speed (WSPD): 11.1 kts
5-day plot - Wind Gust Wind Gust (GST): 15.0 kts
5-day plot - Atmospheric Pressure Atmospheric Pressure (PRES):29.66 in
5-day plot - Air Temperature Air Temperature (ATMP): 40.1 °F
5-day plot - Water Temperature Water Temperature (WTMP): 40.5 °F
5-day plot - Dew Point Dew Point (DEWP): 40.1 °F
5-day plot - Wind Chill Wind Chill (CHILL): 31.5 °F
5-day plot - Wind Speed at 10 Meters Wind Speed at 10 meters (WSPD10M): 13.6 kts
5-day plot - Wind Speed at 20 Meters Wind Speed at 20 meters (WSPD20M): 15.5 kts
5-day plot -  Wind Speed, Wind Gust and Atmospheric Pressure Combined plot of Wind Speed, Gust, and Air Pressure
NOS Water Level Observation Network Water Level
Previous observations
TIME
(EDT)
5-day plot - Wind Direction
WDIR
 
5-day plot - Wind Speed
WSPD
kts
5-day plot - Wind Gust
GST
kts
5-day plot - Wave Height
WVHT
ft
5-day plot - Dominant Wave Period
DPD
sec
5-day plot - Average Wave Period
APD
sec
5-day plot - Mean Wave Direction
MWD
 
5-day plot - Atmospheric Pressure
PRES
in
5-day plot - Pressure Tendency
PTDY
in
5-day plot - Air Temperature
ATMP
°F
5-day plot - Water Temperature
WTMP
°F
5-day plot - Dew Point
DEWP
°F
5-day plot - Salinity
SAL
psu
5-day plot - Visibility
VIS
nmi
5-day plot - Tide (above MLLW)
TIDE
ft
2024-04-17 05:24 pmENE 13.0 17.1----29.66- 40.3 40.5 40.3---
2024-04-17 05:18 pm E 12.0 15.0----29.66- 40.5 40.5 40.5---
2024-04-17 05:12 pmENE 11.1 12.0----29.67- 40.1 40.5 40.1---
2024-04-17 05:06 pmENE 11.1 13.0----29.67- 40.3 40.5 40.3---
2024-04-17 05:00 pmENE 9.9 13.0----29.67-0.05 40.3 40.5 40.3---
2024-04-17 04:54 pmENE 9.9 13.0----29.67- 40.6 40.5 40.6---
2024-04-17 04:48 pm E 11.1 14.0----29.67- 40.8 40.6 40.8---
2024-04-17 04:42 pm E 12.0 18.1----29.67- 40.5 40.5 40.5---
2024-04-17 04:36 pmENE 11.1 13.0----29.68- 40.3 40.5 40.3---
2024-04-17 04:30 pmENE 9.9 14.0----29.68- 40.1 40.5 40.1---
2024-04-17 04:24 pm E 12.0 15.9----29.68- 40.5 40.6 40.5---
2024-04-17 04:18 pm E 9.9 14.0----29.69- 41.0 40.5 41.0---
2024-04-17 04:12 pm E 11.1 18.1----29.69- 41.0 40.5 41.0---
2024-04-17 04:06 pm E 13.0 20.0----29.69- 40.6 40.5 40.6---
2024-04-17 04:00 pm E 12.0 21.0----29.68-0.09 40.3 40.5 40.3---
2024-04-17 03:54 pmENE 9.9 15.9----29.69- 40.5 40.5 40.5---
2024-04-17 03:48 pmENE 4.1 14.0----29.70- 40.6 40.5 40.6---
2024-04-17 03:42 pmENE 4.1 6.0----29.71- 40.5 40.5 40.5---
2024-04-17 03:36 pm E 5.1 12.0----29.71- 40.5 40.5 40.5---
2024-04-17 03:30 pmENE 9.9 14.0----29.70- 40.3 40.5 40.3---
2024-04-17 03:24 pmENE 12.0 19.0----29.70- 40.1 40.5 40.1---
2024-04-17 03:18 pm E 12.0 19.0----29.70- 40.5 40.5 40.5---
2024-04-17 03:12 pmENE 14.0 17.1----29.70- 39.7 40.6 39.7---
2024-04-17 03:06 pmENE 13.0 15.9----29.70- 39.9 40.5 39.9---
2024-04-17 03:00 pmENE 13.0 15.9----29.71-0.08 39.7 40.5 39.7---
2024-04-17 02:54 pmENE 9.9 15.9----29.72- 40.3 40.5 40.3---
2024-04-17 02:48 pmENE 11.1 15.0----29.72- 40.6 40.5 40.6---
2024-04-17 02:42 pmENE 7.0 11.1----29.72- 41.2 40.5 41.2---
2024-04-17 02:36 pm NE 8.0 12.0----29.73- 40.5 40.5 40.5---
2024-04-17 02:30 pm E 9.9 15.0----29.73- 41.9 40.5 41.9---
2024-04-17 02:24 pmENE 8.0 15.0----29.73- 41.5 40.5 41.5---
2024-04-17 02:18 pm E 12.0 21.0----29.74- 42.6 40.5 42.6---
2024-04-17 02:12 pm E 14.0 24.1----29.73- 42.8 40.5 42.6---
2024-04-17 02:06 pm E 17.1 22.9----29.73- 43.0 40.5 42.4---
2024-04-17 02:00 pm E 19.0 25.1----29.72-0.08 43.0 40.5 42.4---
2024-04-17 01:54 pm E 15.0 25.1----29.73- 42.8 40.5 42.4---
2024-04-17 01:48 pm E 13.0 28.9----29.74- 42.1 40.5 41.9---
2024-04-17 01:42 pm E 15.9 25.1----29.74- 43.3 40.5 43.3---
2024-04-17 01:36 pmENE 9.9 15.9----29.75- 40.8 40.5 40.8---
2024-04-17 01:30 pm E 9.9 18.1----29.75- 41.5 40.5 41.5---
2024-04-17 01:24 pm E 6.0 11.1----29.76- 40.8 40.5 40.8---
2024-04-17 01:18 pm NE 6.0 12.0----29.76- 39.9 40.5 39.9---
2024-04-17 01:12 pm NE 8.9 12.0----29.77- 39.4 40.5 39.4---
2024-04-17 01:06 pm NE 9.9 12.0----29.77- 39.4 40.5 39.4---
2024-04-17 01:00 pmENE 8.9 12.0----29.77-0.06 39.7 40.5 39.7---
2024-04-17 12:54 pmENE 9.9 15.0----29.78- 39.6 40.5 39.6---
2024-04-17 12:48 pmENE 12.0 15.0----29.77- 39.7 40.5 39.7---
2024-04-17 12:42 pmENE 11.1 12.0----29.78- 39.6 40.5 39.6---
2024-04-17 12:36 pmENE 8.9 11.1----29.78- 39.7 40.5 39.7---
2024-04-17 12:30 pmENE 7.0 12.0----29.79- 40.3 40.5 40.3---
2024-04-17 12:24 pmENE 9.9 14.0----29.78- 39.7 40.5 39.7---
2024-04-17 12:18 pmENE 12.0 15.9----29.78- 39.7 40.5 39.7---
2024-04-17 12:12 pmENE 13.0 15.9----29.78- 39.7 40.5 39.7---
2024-04-17 12:06 pm NE 9.9 15.9----29.78- 39.7 40.5 39.7---
2024-04-17 12:00 pm NE 12.0 18.1----29.79-0.06 39.6 40.5 39.6---
2024-04-17 11:54 amENE 13.0 20.0----29.80- 39.9 40.5 39.9---
2024-04-17 11:48 amENE 11.1 12.0----29.80- 39.7 40.5 39.7---
2024-04-17 11:42 am NE 8.0 11.1----29.81- 39.7 40.5 39.7---
2024-04-17 11:36 amENE 8.0 15.0----29.81- 40.1 40.5 40.1---
2024-04-17 11:30 amENE 8.0 9.9----29.81- 40.1 40.5 40.1---
2024-04-17 11:24 amENE 7.0 13.0----29.81- 40.3 40.5 40.3---
2024-04-17 11:18 amENE 8.0 11.1----29.81- 40.5 40.5 40.5---
2024-04-17 11:12 amENE 8.9 11.1----29.81- 40.3 40.5 40.3---
2024-04-17 11:06 am E 8.0 14.0----29.81- 39.9 40.5 39.9---
2024-04-17 11:00 am E 12.0 15.0----29.80-0.08 39.6 40.5 39.6---
2024-04-17 10:54 am E 14.0 17.1----29.80- 39.4 40.5 39.4---
2024-04-17 10:48 amENE 15.0 18.1----29.80- 39.0 40.5 39.0---
2024-04-17 10:42 amENE 14.0 17.1----29.80- 39.2 40.5 39.2---
2024-04-17 10:36 amENE 13.0 15.0----29.81- 39.4 40.5 39.4---
2024-04-17 10:30 amENE 11.1 13.0----29.82- 39.4 40.5 39.4---
2024-04-17 10:24 am NE 8.9 13.0----29.83- 39.4 40.5 39.4---
2024-04-17 10:18 am E 9.9 14.0----29.83- 39.7 40.3 39.7---
2024-04-17 10:12 am E 12.0 15.9----29.83- 39.9 40.3 39.9---
2024-04-17 10:06 am E 11.1 15.0----29.83- 39.6 40.3 39.6---
2024-04-17 10:00 am E 11.1 13.0----29.83-0.06 39.4 40.3 39.4---
2024-04-17 09:54 amENE 8.9 11.1----29.83- 38.8 40.3 38.8---
2024-04-17 09:48 am E 8.9 15.0----29.84- 38.8 40.3 38.8---
2024-04-17 09:42 amENE 9.9 14.0----29.84- 38.7 40.3 38.7---
2024-04-17 09:36 am E 11.1 14.0----29.84- 39.0 40.3 39.0---
2024-04-17 09:30 am E 11.1 13.0----29.85- 38.5 40.3 38.5---
2024-04-17 09:24 amENE 12.0 14.0----29.85- 38.3 40.3 38.3---
2024-04-17 09:18 amENE 11.1 14.0----29.85- 37.9 40.3 37.9---
2024-04-17 09:12 amENE 8.9 13.0----29.86- 37.9 40.3 37.9---
2024-04-17 09:06 amENE 8.9 13.0----29.86- 37.9 40.3 37.9---
2024-04-17 09:00 amENE 11.1 14.0----29.85-0.07 37.8 40.3 37.8---
2024-04-17 08:54 amENE 9.9 13.0----29.85- 37.9 40.3 37.9---
2024-04-17 08:48 amENE 12.0 14.0----29.86- 37.9 40.3 37.9---
2024-04-17 08:42 amENE 11.1 13.0----29.87- 37.8 40.3 37.8---
2024-04-17 08:36 amENE 8.9 11.1----29.87- 37.9 40.3 37.9---
2024-04-17 08:24 amENE 8.0 13.0----29.88- 38.1 40.3 38.1---
2024-04-17 08:18 am E 7.0 9.9----29.88- 37.9 40.3 37.9---
2024-04-17 08:12 am E 6.0 11.1----29.88- 37.9 40.3 37.9---
2024-04-17 08:06 am E 9.9 11.1----29.89- 37.9 40.3 37.9---
2024-04-17 08:00 amENE 9.9 13.0----29.88-0.06 37.9 40.3 37.9---
2024-04-17 07:54 am E 8.9 12.0----29.89- 37.8 40.3 37.8---
2024-04-17 07:48 amENE 11.1 13.0----29.89- 37.9 40.3 37.9---
2024-04-17 07:42 am E 12.0 14.0----29.89- 37.9 40.3 37.9---
2024-04-17 07:36 am E 12.0 15.0----29.89- 38.1 40.3 38.1---
2024-04-17 07:30 am E 11.1 14.0----29.90- 38.1 40.3 38.1---
2024-04-17 07:24 am E 12.0 14.0----29.89- 38.3 40.3 38.1---
2024-04-17 07:18 am E 9.9 14.0----29.90- 38.1 40.3 37.9---
2024-04-17 07:12 am E 11.1 15.0----29.90- 38.1 40.3 37.8---
2024-04-17 07:06 am E 12.0 15.0----29.89- 38.1 40.3 37.6---
2024-04-17 07:00 am E 12.0 14.0----29.89-0.09 38.1 40.3 37.6---
2024-04-17 06:54 am E 11.1 14.0----29.90- 38.1 40.3 37.6---
2024-04-17 06:48 am E 11.1 17.1----29.90- 38.1 40.3 37.4---
2024-04-17 06:42 am E 15.0 19.0----29.90- 38.1 40.3 37.4---
2024-04-17 06:36 am E 13.0 17.1----29.90- 38.3 40.3 37.6---
2024-04-17 06:30 am E 13.0 15.9----29.91- 38.5 40.3 37.8---
2024-04-17 06:24 am E 12.0 17.1----29.91- 38.7 40.3 37.8---
2024-04-17 06:18 am E 12.0 18.1----29.91- 38.7 40.3 37.8---
2024-04-17 06:12 am E 12.0 17.1----29.91- 38.7 40.3 37.8---
2024-04-17 06:06 am E 13.0 18.1----29.92- 38.5 40.3 37.6---
2024-04-17 06:00 am E 14.0 17.1----29.92-0.10 38.5 40.3 37.6---
2024-04-17 05:54 am E 13.0 18.1----29.92- 38.5 40.3 37.4---
2024-04-17 05:48 am E 12.0 15.9----29.93- 38.5 40.3 37.6---
2024-04-17 05:42 am E 14.0 17.1----29.93- 38.5 40.3 37.4---
2024-04-17 05:36 am E 11.1 19.0----29.94- 38.5 40.3 37.6---
2024-04-17 05:30 am E 12.0 20.0----29.94- 38.8 40.3 37.8---
2024-04-17 05:24 am E 14.0 18.1----29.95- 39.0 40.1 37.8---
2024-04-17 05:18 am E 14.0 18.1----29.96- 39.0 40.1 37.8---
2024-04-17 05:12 am E 15.9 19.0----29.95- 39.4 40.1 37.9---
2024-04-17 05:06 am E 9.9 18.1----29.96- 39.2 40.1 37.9---
2024-04-17 05:00 am E 14.0 22.0----29.95-0.08 39.4 40.1 38.1---
2024-04-17 04:54 am E 15.0 18.1----29.95- 39.2 40.1 38.1---
2024-04-17 04:48 am E 14.0 17.1----29.95- 39.2 40.1 37.9---
2024-04-17 04:42 am E 12.0 17.1----29.96- 39.2 40.1 37.8---
2024-04-17 04:36 am E 13.0 22.0----29.96- 39.2 40.1 37.8---
2024-04-17 04:30 am E 18.1 22.9----29.94- 39.6 40.1 37.9---
2024-04-17 04:24 am E 18.1 22.0----29.95- 39.9 40.1 38.1---
2024-04-17 04:18 am E 15.9 19.0----29.96- 40.3 40.1 38.3---
2024-04-17 04:12 am E 14.0 19.0----29.96- 40.5 40.1 38.3---
2024-04-17 04:06 am E 15.9 22.0----29.97- 40.8 40.1 38.5---
2024-04-17 04:00 am E 13.0 15.9----29.98-0.04 40.8 40.1 38.5---
2024-04-17 03:54 amESE 9.9 12.0----29.99- 40.8 39.9 38.5---
2024-04-17 03:48 am E 9.9 21.0----29.99- 40.6 39.9 38.5---
2024-04-17 03:42 am E 18.1 22.9----29.94- 40.8 39.9 38.7---
2024-04-17 03:36 amENE 19.0 24.1----29.93- 40.6 39.9 38.7---
2024-04-17 03:30 amENE 18.1 21.0----29.94- 41.0 39.9 38.7---
2024-04-17 03:24 am E 17.1 19.0----29.97- 41.4 39.9 38.5---
2024-04-17 03:18 am E 15.0 19.0----29.98- 41.7 39.9 38.3---
2024-04-17 03:12 am E 14.0 17.1----29.99- 41.7 39.9 37.9---
2024-04-17 03:06 am E 12.0 14.0----30.00- 42.4 39.9 37.6---
2024-04-17 03:00 am E 11.1 13.0----30.01-0.02 42.8 39.9 37.2---
2024-04-17 02:54 am E 9.9 15.9----30.01- 43.2 39.9 36.5---
2024-04-17 02:48 am E 14.0 15.9----30.01- 43.9 39.9 35.8---
2024-04-17 02:42 am E 13.0 17.1----30.01- 44.2 39.9 35.2---
2024-04-17 02:36 am E 12.0 13.0----30.02- 44.4 39.9 34.9---
2024-04-17 02:30 am E 9.9 15.0----30.02- 44.8 39.9 34.3---
2024-04-17 02:24 am E 12.0 15.9----30.02- 45.0 39.9 33.6---
2024-04-17 02:18 am E 12.0 15.0----30.03- 45.5 39.9 33.3---
2024-04-17 02:12 am E 13.0 15.0----30.03- 46.0 39.9 33.1---
2024-04-17 02:06 am E 12.0 15.9----30.02- 46.0 39.9 32.7---
2024-04-17 02:00 am E 11.1 17.1----30.03-0.03 46.9 39.9 32.5---
2024-04-17 01:54 am E 13.0 18.1----30.03- 48.0 39.9 32.2---
2024-04-17 01:48 amESE 15.0 18.1----30.04- 48.9 39.9 31.5---
2024-04-17 01:42 amESE 12.0 17.1----30.05- 48.7 39.9 31.1---
2024-04-17 01:36 amESE 11.1 14.0----30.05- 48.7 39.9 31.3---
2024-04-17 01:30 amESE 11.1 15.0----30.05- 48.7 39.9 31.3---
2024-04-17 01:24 amESE 8.9 12.0----30.04- 48.2 39.9 30.9---
2024-04-17 01:18 am E 8.9 11.1----30.03- 47.5 39.9 30.9---
2024-04-17 01:12 amENE 9.9 14.0----30.03- 47.5 39.9 30.6---
2024-04-17 01:06 amESE 11.1 19.0----30.02- 48.7 39.9 30.6---
2024-04-17 01:00 am E 14.0 20.0----30.02-0.04 48.7 39.9 30.6---
2024-04-17 12:54 am E 13.0 18.1----30.01- 48.6 39.9 29.7---
2024-04-17 12:48 amESE 14.0 19.0----30.02- 48.6 39.9 28.9---
2024-04-17 12:42 am E 13.0 18.1----30.02- 48.2 39.9 28.9---
2024-04-17 12:36 amESE 13.0 17.1----30.03- 48.0 39.9 28.6---
2024-04-17 12:30 amESE 12.0 15.9----30.03- 48.0 39.9 28.4---
2024-04-17 12:24 amESE 12.0 15.9----30.03- 47.7 39.9 27.9---
2024-04-17 12:18 amESE 11.1 18.1----30.03- 47.5 39.9 28.2---
2024-04-17 12:12 am E 12.0 20.0----30.03- 47.1 39.9 28.2---
2024-04-17 12:06 am E 14.0 15.9----30.03- 47.1 39.9 27.9---
2024-04-17 12:00 am E 11.1 18.1----30.03-0.04 46.9 39.9 26.6---
2024-04-16 11:54 pmESE 15.0 19.0----30.03- 47.5 39.9 27.5---
2024-04-16 11:48 pm E 14.0 18.1----30.03- 47.3 39.9 27.1---
2024-04-16 11:42 pmESE 12.0 17.1----30.04- 47.1 39.9 27.9---
2024-04-16 11:36 pmESE 13.0 17.1----30.04- 46.9 39.9 27.9---
2024-04-16 11:30 pm SE 12.0 20.0----30.04- 46.6 39.9 28.4---
2024-04-16 11:24 pm SE 13.0 18.1----30.04- 46.4 39.9 28.6---
2024-04-16 11:18 pmESE 12.0 19.0----30.04- 46.2 39.9 27.5---
2024-04-16 11:12 pmESE 13.0 17.1----30.04- 45.9 39.7 27.5---
2024-04-16 11:06 pmESE 12.0 15.9----30.05- 45.5 39.9 27.7---
2024-04-16 11:00 pmESE 11.1 15.0----30.06-0.02 45.1 39.9 28.6---
2024-04-16 10:54 pmESE 8.9 13.0----30.06- 45.1 39.9 28.0---
2024-04-16 10:48 pmESE 8.9 13.0----30.06- 45.0 39.9 27.5---
2024-04-16 10:42 pmESE 8.9 12.0----30.06- 45.1 39.7 27.5---
2024-04-16 10:36 pmESE 8.0 11.1----30.06- 44.8 39.7 28.0---
2024-04-16 10:30 pm SE 8.9 12.0----30.06- 44.6 39.7 28.6---
2024-04-16 10:24 pm SE 9.9 14.0----30.07- 44.6 39.7 28.6---
2024-04-16 10:18 pm SE 13.0 15.0----30.07- 44.6 39.7 27.1---
2024-04-16 10:12 pmESE 12.0 15.0----30.07- 44.4 39.7 28.2---
2024-04-16 10:06 pmESE 12.0 15.9----30.06- 44.6 39.7 27.3---
2024-04-16 10:00 pmESE 13.0 15.9----30.06-0.04 44.6 39.7 27.0---
2024-04-16 09:54 pmESE 12.0 15.0----30.07- 44.4 39.7 27.1---
2024-04-16 09:48 pm SE 12.0 14.0----30.07- 44.2 39.7 28.0---
2024-04-16 09:42 pm SE 9.9 13.0----30.08- 44.1 39.7 29.5---
2024-04-16 09:36 pm SE 11.1 13.0----30.08- 43.9 39.7 30.7---
2024-04-16 09:30 pm SE 11.1 14.0----30.09- 43.7 39.7 31.3---
2024-04-16 09:24 pm SE 11.1 12.0----30.08- 43.5 39.7 31.5---
2024-04-16 09:18 pm SE 8.9 12.0----30.08- 43.3 39.7 32.2---
2024-04-16 09:12 pm SE 9.9 12.0----30.08- 43.3 39.7 31.8---
2024-04-16 09:06 pm SE 8.0 9.9----30.08- 43.3 39.7 31.8---
2024-04-16 09:00 pm SE 8.9 9.9----30.08-0.04 43.3 39.7 31.6---
2024-04-16 08:54 pm SE 8.0 8.9----30.07- 43.3 39.7 31.6---
2024-04-16 08:48 pm SE 8.0 9.9----30.07- 43.7 39.7 31.3---
2024-04-16 08:42 pm SE 8.0 9.9----30.07- 43.9 39.7 31.3---
2024-04-16 08:36 pm SE 8.9 11.1----30.07- 44.1 39.7 30.6---
2024-04-16 08:30 pm SE 8.9 9.9----30.07- 44.1 39.7 30.7---
2024-04-16 08:24 pm SE 8.0 11.1----30.07- 44.2 39.7 30.9---
2024-04-16 08:18 pmSSE 8.0 11.1----30.07- 44.2 39.7 31.5---
2024-04-16 08:12 pmSSE 8.0 11.1----30.07- 44.4 39.7 31.3---
2024-04-16 08:06 pmSSE 8.0 9.9----30.07- 44.6 39.7 31.1---
2024-04-16 08:00 pmSSE 8.0 9.9----30.08-0.05 45.0 39.7 30.6---
2024-04-16 07:54 pmSSE 8.9 12.0----30.08- 45.3 39.7 29.8---
2024-04-16 07:48 pmSSE 8.0 9.9----30.08- 45.7 39.7 30.6---
2024-04-16 07:42 pm SE 7.0 9.9----30.08- 46.4 39.7 29.5---
2024-04-16 07:36 pm SE 8.0 9.9----30.08- 45.7 39.7 30.9---
2024-04-16 07:30 pm SE 9.9 12.0----30.08- 45.7 39.7 29.5---
2024-04-16 07:24 pm SE 8.9 11.1----30.09- 45.5 39.7 30.4---
2024-04-16 07:18 pmSSE 8.9 12.0----30.09- 45.5 39.7 30.2---
2024-04-16 07:12 pmSSE 8.9 11.1----30.10- 45.5 39.7 28.9---
2024-04-16 07:06 pmSSE 11.1 14.0----30.09- 45.7 39.7 28.8---
2024-04-16 07:00 pmSSE 13.0 14.0----30.10-0.06 45.7- 28.4---
2024-04-16 06:54 pmSSE 11.1 14.0----30.09- 45.5- 30.0---
2024-04-16 06:48 pmSSE 8.9 9.9----30.10- 45.7 39.7 32.7---
2024-04-16 06:42 pm SE 8.0 11.1----30.10- 45.5 39.7 32.9---
2024-04-16 06:36 pmSSE 8.9 11.1----30.11- 45.1 39.7 32.4---
2024-04-16 06:30 pmSSE 11.1 12.0----30.11-- 39.7----
2024-04-16 06:24 pmSSE 6.0 8.9----30.11-- 39.7----
2024-04-16 06:18 pm S 8.0 9.9----30.11-- 39.7----
2024-04-16 06:12 pm S 8.9 11.1----30.12-- 39.7----
2024-04-16 06:06 pm S 8.0 9.9----30.12-- 39.7----
2024-04-16 06:00 pmSSW 8.0 9.9----30.12-0.06 43.3 39.7 33.1---
2024-04-16 05:54 pm S 6.0 8.0----30.12- 43.5 39.7 33.4---